GFSNW_500_rhum_120.txt.gz
RH
10 13 13 10 6 6 7 12 16 19 24 38 30 36 46 51 55 58 59 64 67 69 69 69 72 74 89 94 96 98 99 95 91 93 98 97 95 90 87 83 80 72 74 81
8 10 13 13 10 7 6 6 11 14 17 21 20 25 37 44 52 60 67 69 74 76 79 80 87 88 92 89 84 82 88 91 93 80 81 76 74 78 71 81 84 85 88 92
19 7 9 13 13 10 7 6 6 9 13 15 15 17 22 30 40 48 55 58 57 58 64 55 46 42 36 36 39 48 59 46 37 48 61 64 64 64 70 77 69 84 83 80
36 10 7 8 12 12 11 8 6 6 7 9 11 12 14 20 27 32 38 42 44 46 43 39 34 30 27 27 26 22 20 19 19 20 26 31 36 44 53 52 48 54 54 49
67 32 6 7 8 10 13 12 9 6 6 6 7 9 11 12 14 18 22 25 28 30 31 31 28 26 25 22 20 19 17 14 12 12 14 19 22 25 21 24 23 22 21 20
92 64 27 5 7 7 8 11 12 11 8 6 6 6 6 8 9 10 12 14 15 16 16 14 13 13 13 12 12 11 10 11 13 11 12 11 11 13 15 14 12 10 10 11
94 90 71 15 5 7 6 7 8 11 12 11 8 6 6 6 6 6 7 8 8 10 10 8 8 7 7 6 6 6 6 6 7 8 8 10 10 9 9 9 9 9 9 9
91 88 87 56 12 5 7 7 6 7 8 12 13 11 9 8 6 6 6 6 6 6 6 6 6 6 6 6 5 5 5 5 5 5 5 5 5 6 9 9 8 9 9 8
69 84 86 85 51 10 5 6 8 7 6 7 11 14 14 12 11 10 9 8 8 8 8 8 8 8 8 8 8 7 7 7 7 6 6 6 5 5 4 5 5 4 4 4
59 74 78 84 82 44 12 10 9 7 9 7 6 7 12 13 15 14 13 12 12 11 11 12 12 13 13 14 14 14 14 13 10 8 8 7 7 7 6 6 6 6 6 6
52 61 74 76 81 78 60 36 17 10 6 7 10 8 7 8 9 13 15 15 18 17 16 16 16 17 18 18 18 18 17 16 16 16 16 15 14 10 8 8 8 8 8 8
50 54 68 72 70 80 77 68 50 27 11 12 7 8 10 11 9 8 8 11 12 14 17 17 16 14 16 16 16 16 17 19 20 20 20 20 18 17 18 18 18 15 12 10
50 48 52 70 72 69 80 80 74 62 34 21 25 12 7 6 7 9 12 11 9 10 10 10 8 9 10 10 11 11 11 12 14 14 14 15 16 19 21 22 22 21 20 20
54 49 45 58 72 68 70 75 83 81 71 61 47 44 13 8 5 5 4 6 12 12 10 11 11 11 11 10 12 10 11 12 12 12 11 12 12 12 12 12 14 14 16 21
61 57 57 45 65 70 69 74 71 74 86 84 76 77 66 41 18 7 6 4 5 7 10 10 12 12 12 14 15 14 14 11 12 11 11 12 12 12 13 15 14 14 15 14
62 61 58 56 56 83 65 70 76 74 67 71 89 85 91 84 66 30 9 6 5 4 5 8 11 12 10 11 16 18 16 15 15 15 18 17 14 13 12 12 12 11 7 7
62 64 60 58 59 60 73 74 78 78 70 69 64 76 93 95 92 84 44 12 6 5 5 7 10 12 9 9 15 19 16 21 23 23 22 21 21 18 16 16 15 12 9 11
72 76 74 65 62 56 62 78 80 80 67 57 54 63 93 96 94 92 89 69 21 5 6 7 9 10 9 8 16 18 12 17 18 21 23 24 24 24 28 22 20 22 16 9
79 94 96 88 65 57 75 90 79 71 62 43 38 57 93 100 97 93 96 91 80 44 7 6 7 8 8 10 12 14 10 12 15 16 14 16 21 24 25 27 28 28 28 20
100 100 96 95 85 82 82 96 92 57 43 37 33 36 84 98 98 96 92 87 84 64 62 21 6 6 8 8 8 9 10 10 10 12 14 14 12 14 15 18 23 25 30 33
95 100 96 95 99 100 100 99 87 62 50 37 34 43 74 97 95 96 94 86 79 62 52 62 52 44 27 14 9 8 9 9 10 10 13 16 16 17 17 18 21 28 30 31
56 100 100 100 99 100 100 92 79 63 56 48 49 59 80 92 99 97 94 93 80 64 56 52 41 61 76 97 92 56 19 13 12 12 14 16 18 20 24 37 26 32 36 38
42 66 99 100 100 100 92 69 57 55 59 74 96 91 90 92 100 97 98 84 74 71 58 45 59 84 85 89 88 95 94 68 42 34 26 23 34 55 36 36 38 33 35 38
33 98 100 100 100 95 72 68 76 78 81 95 100 100 98 97 100 98 94 90 76 68 62 68 92 89 79 74 78 86 92 91 92 95 96 96 94 88 66 62 72 79 77 58
11 78 100 100 97 96 90 75 74 81 89 100 100 100 98 97 100 95 95 90 73 65 80 96 95 85 78 71 73 75 82 85 93 95 95 96 94 96 91 74 73 69 74 77
21 93 100 91 89 93 90 95 87 94 96 99 100 99 100 97 97 94 95 94 75 93 98 94 88 80 79 72 71 74 79 85 88 94 92 91 92 92 83 78 75 75 78 86
8 21 59 87 47 60 94 100 100 100 100 100 100 99 100 100 97 81 73 70 100 98 97 93 96 87 76 73 75 84 79 80 86 92 97 98 93 88 78 81 88 90 95 95

GFSNW_500_rhum_123.txt.gz
RH
17 7 13 14 8 6 6 7 14 16 25 40 42 44 45 43 43 44 44 47 54 57 59 60 71 78 80 84 87 92 90 90 95 95 90 84 86 81 81 85 87 84 79 74
77 11 7 13 14 9 6 6 7 11 12 17 24 30 42 54 56 61 61 63 68 71 75 76 75 76 80 86 89 87 84 87 80 71 76 76 65 66 71 76 76 79 78 75
67 60 8 7 12 14 9 6 6 6 8 11 12 17 27 36 45 50 52 50 40 35 35 33 32 33 35 32 25 24 25 34 47 49 53 51 63 69 62 56 57 51 45 31
94 68 59 7 7 11 14 10 7 6 6 6 9 9 10 18 24 32 38 39 38 36 35 33 29 26 24 22 20 18 16 16 18 20 22 23 27 32 34 33 24 22 18 15
89 94 57 58 7 7 10 13 12 9 6 6 6 7 7 7 8 15 17 16 16 15 14 13 14 13 13 13 16 16 14 14 13 12 13 16 17 18 17 16 15 13 12 11
70 90 91 54 51 8 7 8 12 13 11 8 6 6 6 6 6 6 8 9 10 12 11 8 8 7 7 8 8 8 7 7 8 9 10 10 10 10 12 12 11 10 10 10
61 67 89 82 52 37 6 7 6 8 12 13 11 8 7 6 6 5 5 6 6 6 6 6 6 6 6 6 6 5 5 5 4 5 6 7 8 8 8 8 8 8 8 8
60 58 67 85 83 51 32 7 7 7 7 10 13 13 12 10 9 8 8 7 7 7 7 7 7 7 7 7 7 7 7 7 6 6 6 5 4 4 5 7 7 7 5 4
58 65 59 66 82 80 52 20 8 6 8 7 7 9 12 13 13 12 11 10 11 11 11 12 12 13 13 12 12 12 12 11 10 8 7 7 6 5 5 5 4 5 5 5
65 74 60 60 70 84 77 56 21 11 9 7 8 7 7 8 9 13 14 14 13 12 12 12 12 13 14 15 16 16 16 16 16 16 16 14 15 11 9 8 8 8 8 8
75 68 54 60 59 70 82 78 70 45 22 11 6 7 9 8 7 7 9 11 14 15 15 15 16 17 18 18 20 20 21 19 20 20 18 18 18 17 17 17 17 16 14 12
92 86 61 51 57 59 67 84 80 75 61 29 15 10 8 7 8 10 10 9 8 8 10 12 11 12 13 12 12 15 15 15 14 16 18 18 19 20 20 20 21 21 21 21
69 71 75 62 50 52 59 65 82 82 80 70 47 17 20 13 10 6 6 7 8 9 10 10 10 10 11 10 11 11 10 10 10 11 12 11 12 11 11 12 13 14 16 18
63 68 67 68 72 58 48 53 64 81 79 82 77 65 47 33 28 10 8 6 5 5 5 7 9 10 10 10 10 10 10 11 6 9 10 8 10 9 11 12 11 12 13 13
68 65 63 63 63 63 61 49 50 58 78 81 86 78 74 67 62 42 56 32 15 6 4 4 5 8 11 11 11 12 15 12 8 9 8 10 11 10 10 8 8 7 5 6
73 77 73 71 67 63 62 58 52 52 52 59 80 85 88 79 77 81 88 88 75 36 12 5 4 5 8 8 11 15 20 14 12 11 12 13 16 16 16 15 18 17 12 9
72 79 83 79 76 67 63 60 60 61 58 47 50 55 89 97 95 90 86 84 86 86 72 39 13 5 5 7 10 14 19 16 13 17 18 18 19 20 21 20 20 23 25 18
68 80 86 79 76 67 56 66 65 62 59 52 39 37 51 90 95 98 99 86 77 69 67 73 77 38 5 4 9 11 14 18 12 15 17 20 21 23 23 25 25 25 26 29
54 61 86 88 79 69 66 81 84 74 70 53 40 40 45 53 91 94 90 86 80 64 57 70 64 56 55 30 7 9 10 11 13 13 12 13 13 13 16 16 17 18 20 22
32 36 43 60 71 86 96 97 100 90 70 59 50 42 44 56 87 92 92 82 83 67 59 64 51 36 82 97 27 8 9 9 9 9 10 10 10 10 11 13 14 13 13 13
21 48 59 50 68 100 100 100 99 88 63 46 48 57 66 62 81 100 96 86 84 72 57 54 40 40 95 95 91 89 22 8 8 8 9 8 10 10 10 10 11 12 14 17
8 19 33 48 66 80 100 98 93 75 64 53 52 83 94 98 100 100 96 95 90 78 61 53 39 59 89 87 93 94 94 91 69 49 44 39 32 23 16 13 12 13 14 17
3 8 27 94 100 100 93 81 66 64 67 75 87 99 100 95 100 100 99 97 88 88 75 53 52 86 78 74 76 84 89 85 88 90 91 92 95 82 49 35 31 31 53 84
4 25 94 100 100 88 75 70 64 70 81 87 92 94 98 98 100 100 100 100 89 74 67 64 90 89 84 77 79 78 86 91 87 94 95 95 96 97 98 98 93 96 94 89
6 8 97 93 90 88 78 95 96 93 100 100 100 97 94 93 100 100 99 100 87 74 77 95 97 93 92 87 82 82 83 82 86 92 94 96 95 96 97 96 94 94 86 86
8 6 7 13 27 37 76 94 100 100 100 100 100 100 100 100 100 100 100 99 89 89 100 100 98 97 95 90 90 84 80 89 95 94 96 98 97 97 96 91 78 80 83 86
7 5 5 5 4 4 26 100 100 100 100 100 100 100 100 100 100 100 100 93 100 100 100 97 95 96 94 100 97 92 91 94 96 95 97 95 94 94 91 84 70 74 86 90

GFSNW_500_rhum_126.txt.gz
RH
96 88 14 7 12 12 6 6 7 10 19 30 44 34 39 51 58 58 56 51 53 57 52 54 56 56 54 59 62 69 79 84 80 81 82 80 77 80 78 77 71 69 74 70
78 96 82 13 7 12 12 7 7 7 8 15 21 36 42 44 42 46 52 61 65 66 67 72 76 78 82 83 84 87 86 84 84 80 75 68 61 70 69 73 67 67 49 30
78 88 96 71 14 7 11 12 8 6 7 7 9 15 22 32 32 28 27 27 27 26 26 27 27 24 26 26 30 43 56 54 53 51 47 54 59 57 51 44 36 25 21 16
95 76 93 92 67 15 7 9 11 10 7 6 6 7 9 14 15 15 14 13 13 14 15 16 17 17 16 17 17 17 17 17 19 20 21 21 23 25 24 23 20 17 15 12
97 91 75 94 83 50 11 7 8 12 11 9 6 6 5 6 8 11 12 12 12 10 8 9 10 9 9 8 9 9 9 10 11 12 12 13 14 14 16 15 13 12 9 10
93 94 81 71 92 74 35 12 7 6 10 12 11 9 6 6 6 6 6 6 6 6 6 6 6 6 6 5 5 5 4 5 6 7 9 9 8 8 8 8 9 8 8 7
93 91 82 70 69 84 62 41 25 7 6 8 12 12 11 10 8 7 7 6 6 7 7 7 7 7 7 7 7 7 7 7 6 6 5 4 5 4 5 6 7 6 7 5
84 89 80 72 70 68 83 72 45 31 7 7 7 8 12 12 12 11 10 10 10 10 11 11 12 12 12 11 10 10 10 9 8 8 7 6 6 5 5 4 4 4 5 6
88 76 77 89 80 78 66 78 76 47 34 11 8 7 7 8 10 12 13 14 13 12 12 12 12 13 13 14 14 15 15 15 16 16 15 11 9 8 7 7 7 6 7 7
71 63 66 83 94 64 64 66 76 74 64 33 22 9 8 8 7 8 8 10 13 14 15 15 15 16 17 18 20 19 19 19 19 18 18 18 16 17 16 16 14 14 13 12
64 61 53 65 90 89 64 64 65 70 76 74 61 38 20 7 8 8 8 7 8 9 11 13 15 15 18 18 18 19 19 17 17 15 16 18 19 20 20 20 20 20 20 20
63 64 61 60 80 93 94 63 60 60 61 74 74 74 55 28 20 8 8 8 9 8 8 9 9 10 11 12 15 17 16 15 13 12 11 11 12 14 13 12 12 12 13 15
68 76 68 67 67 64 68 77 71 69 62 58 61 68 74 72 46 36 26 13 7 6 5 6 7 8 9 10 10 11 11 11 11 8 10 10 6 10 10 10 11 11 10 12
69 64 72 80 68 64 61 60 62 66 68 66 60 54 62 68 75 73 51 79 41 10 9 5 4 4 6 8 9 9 11 11 10 6 8 6 8 8 7 8 8 8 8 10
74 74 65 67 68 65 60 58 58 54 53 50 62 63 59 68 70 73 80 83 86 38 46 50 22 6 4 6 8 8 9 11 11 8 6 6 8 10 8 9 10 12 15 21
72 82 79 75 72 70 70 62 67 64 57 49 46 53 64 61 66 83 83 82 86 81 82 82 71 83 33 7 4 7 7 9 10 11 10 7 8 10 11 14 16 17 16 17
56 72 84 85 90 81 74 61 62 73 72 64 50 45 47 61 64 67 79 87 79 78 69 76 82 77 70 54 60 68 7 8 9 12 11 12 13 12 14 18 20 21 22 23
61 84 85 75 90 91 74 75 76 78 91 79 55 40 41 48 61 70 76 80 80 67 66 66 83 70 64 48 96 95 54 8 9 9 10 12 13 16 19 20 20 18 19 19
5 11 25 49 55 81 80 99 94 84 88 70 53 46 46 43 51 69 88 88 78 68 55 66 69 55 40 87 81 89 97 67 21 17 12 11 11 12 13 14 14 14 12 12
2 4 8 15 24 38 55 77 94 97 92 78 55 52 52 56 64 70 80 100 97 78 60 62 54 40 55 87 89 80 80 90 84 37 22 14 11 12 11 10 10 9 9 9
2 3 4 29 50 42 76 95 72 80 76 71 65 59 67 81 82 93 100 100 94 88 72 68 52 44 76 75 87 87 76 81 80 82 88 54 30 37 38 34 36 36 35 42
3 3 5 56 100 100 100 100 75 35 38 55 66 87 100 90 100 100 98 100 100 81 65 64 56 70 87 89 87 89 85 85 86 78 76 86 91 88 83 74 74 70 71 95
6 5 4 6 49 100 100 85 54 45 40 31 55 81 98 100 100 100 100 99 100 94 82 67 67 95 93 92 94 94 90 87 83 77 77 85 88 89 90 94 94 93 95 96
8 7 7 7 18 5 14 49 67 52 40 51 70 85 100 100 100 100 97 100 100 97 89 74 93 95 95 94 97 96 91 88 95 94 92 93 89 93 96 95 95 94 95 100
11 9 8 5 4 4 4 7 11 32 46 100 100 100 100 100 100 100 100 100 100 99 93 100 96 94 91 91 96 99 97 96 98 96 96 96 94 92 94 95 96 99 99 98
10 8 5 5 6 5 6 6 9 20 99 100 100 100 100 100 100 100 100 100 98 99 100 99 100 100 99 100 98 91 89 90 94 97 97 97 96 94 94 94 93 96 98 96
8 5 5 5 6 6 6 6 7 30 98 100 100 100 100 100 100 97 100 99 100 100 100 94 94 93 87 86 84 84 89 100 98 97 98 98 97 98 97 95 92 93 95 92

GFSNW_500_rhum_129.txt.gz
RH
94 94 79 76 61 7 12 10 6 6 12 24 22 19 26 37 43 52 55 58 61 54 54 44 36 38 44 47 45 47 54 61 68 74 76 79 78 78 71 67 67 65 65 40
87 94 92 83 77 60 7 12 12 6 6 8 20 20 18 17 17 18 22 36 54 65 70 73 73 72 75 80 77 74 72 69 70 67 64 61 54 62 62 55 57 61 36 24
91 95 96 85 91 73 49 7 10 12 7 6 6 10 14 13 12 12 13 13 14 13 16 19 21 23 28 36 46 50 49 49 47 42 40 46 52 50 49 44 36 28 21 20
78 96 92 93 78 94 76 40 6 8 13 9 6 6 6 8 10 10 9 10 9 9 10 10 10 11 12 14 14 14 14 17 19 20 19 20 24 26 23 21 18 14 10 9
67 81 94 91 76 74 94 80 48 6 6 12 11 8 6 6 6 6 6 6 6 6 6 6 6 6 6 6 7 7 8 8 8 9 9 9 9 9 9 10 9 8 8 9
65 62 85 79 83 67 70 87 71 51 7 6 8 12 11 8 7 7 7 6 7 7 7 7 7 7 6 6 5 5 5 5 5 5 5 6 7 7 7 7 7 7 7 7
62 65 68 84 80 74 68 68 81 69 53 12 6 6 9 12 12 11 10 10 10 10 10 10 11 11 10 9 9 9 9 9 8 8 6 5 5 4 4 4 4 4 4 4
62 65 70 91 91 85 87 72 61 80 73 52 24 8 7 7 8 11 12 13 12 11 12 12 12 13 13 14 14 14 15 15 15 15 12 10 7 7 5 5 4 4 5 6
60 63 61 92 91 73 86 94 63 61 84 75 59 37 25 10 7 7 7 9 11 12 13 13 14 14 13 14 15 17 18 18 18 17 17 17 16 16 16 14 13 11 13 12
63 63 64 64 67 60 61 86 69 62 65 70 71 70 50 43 42 14 7 7 7 8 9 11 13 14 17 17 19 19 18 18 18 16 16 16 17 18 19 19 19 20 20 20
60 66 69 73 79 64 60 75 90 89 74 64 62 62 69 69 51 52 39 13 8 7 7 8 9 10 11 12 13 15 16 16 17 16 15 12 11 11 12 15 15 14 13 12
61 58 61 75 72 80 67 60 62 89 96 65 61 59 58 62 65 68 60 56 45 28 11 6 6 7 8 8 9 10 10 11 11 11 13 10 8 8 9 10 11 10 10 9
59 58 58 59 72 74 81 74 63 55 56 70 78 73 67 62 57 55 63 67 64 58 61 44 14 5 5 5 6 7 9 11 10 9 13 10 6 7 7 5 7 7 6 6
55 55 52 54 59 59 72 79 77 71 68 54 65 66 63 66 64 59 56 58 66 70 71 66 66 42 30 35 17 6 7 8 9 8 9 9 7 6 7 6 5 6 7 9
53 51 51 51 49 58 56 58 68 75 69 56 58 60 66 63 60 59 61 62 56 55 61 68 71 73 72 62 55 66 47 14 19 13 8 9 9 8 9 7 7 8 9 11
47 46 46 47 47 54 51 49 59 67 69 60 48 52 63 64 60 61 65 67 65 59 51 50 53 79 70 51 54 97 93 52 12 15 30 12 10 9 10 11 10 8 10 13
21 30 33 33 40 41 42 49 54 80 79 67 55 46 48 60 68 72 73 74 70 72 62 51 54 60 49 36 39 99 81 93 95 58 26 46 58 17 9 11 11 12 12 13
2 3 7 9 13 21 31 33 64 84 100 92 65 50 43 52 59 75 86 87 85 77 72 59 72 64 54 28 71 86 85 78 83 88 75 76 68 56 24 10 10 11 14 16
1 1 1 2 3 6 8 20 45 64 90 87 65 56 63 59 70 78 89 99 95 90 74 74 71 60 44 80 81 79 80 70 73 77 81 88 77 75 78 67 18 10 10 11
3 2 2 2 2 2 3 6 13 34 44 63 45 53 64 77 92 92 100 100 100 100 90 84 69 51 77 92 83 79 81 77 75 78 78 76 77 73 73 79 100 80 74 54
4 4 3 3 2 2 3 5 10 20 8 6 10 20 47 69 97 100 100 99 100 98 93 87 73 55 93 88 92 79 74 77 80 76 88 83 82 78 76 75 78 93 98 96
5 5 5 5 5 4 3 3 6 8 19 23 27 40 53 71 88 97 97 100 100 99 92 89 75 80 98 91 89 82 80 82 85 86 89 94 92 86 83 81 81 76 76 89
6 8 8 6 6 5 4 3 3 10 48 82 100 100 100 99 94 100 100 100 100 100 98 85 74 100 92 86 88 85 87 88 90 95 96 95 95 94 94 91 89 91 92 90
10 11 12 8 4 4 3 4 5 9 20 61 86 100 100 100 100 100 100 87 75 86 79 81 94 93 95 93 88 91 93 94 95 94 93 95 96 96 96 97 96 96 97 98
24 18 12 5 4 6 6 6 6 6 6 15 41 74 92 97 100 100 99 100 100 99 100 100 100 95 89 94 90 95 96 92 88 88 98 84 82 94 97 98 98 100 99 97
51 26 11 5 6 7 8 9 8 7 7 7 7 18 100 100 87 71 75 87 98 99 99 100 100 100 100 100 100 100 99 84 82 72 73 78 79 90 95 95 98 98 99 98
36 26 13 11 10 8 10 11 12 35 58 69 64 52 100 85 98 100 100 90 98 100 100 96 100 91 84 92 94 99 100 100 98 100 97 84 88 99 100 100 100 100 99 99

GFSNW_500_rhum_135.txt.gz
RH
34 58 65 68 84 84 62 11 10 12 7 7 7 8 9 10 12 20 31 34 37 42 47 52 54 45 30 25 25 24 18 15 17 23 37 42 47 53 63 60 57 47 41 42
35 56 61 65 70 84 80 45 12 8 12 8 6 6 6 8 8 8 9 10 11 16 21 28 32 36 45 54 58 60 57 56 57 57 56 52 49 45 44 40 38 41 36 36
38 56 60 61 68 79 79 80 40 13 8 12 11 8 7 6 6 7 7 7 7 7 8 8 8 9 11 13 16 21 26 32 35 33 34 36 36 35 29 26 26 21 19 12
45 62 60 59 62 68 84 74 77 48 18 7 9 12 10 9 8 8 7 6 6 6 6 5 5 5 5 5 5 6 8 8 10 12 13 13 12 11 11 11 10 9 11 7
53 65 64 60 63 64 71 89 72 82 65 47 14 7 10 11 10 10 10 10 9 9 8 8 7 6 7 7 6 7 6 5 5 5 5 6 7 8 7 6 7 7 7 7
59 70 70 71 63 64 78 94 94 72 74 79 66 37 7 7 9 12 11 11 11 11 12 12 12 12 11 11 12 13 12 12 10 9 6 5 4 4 4 4 4 4 3 3
67 81 79 81 82 65 64 84 95 96 82 68 74 77 61 21 7 7 8 10 10 12 11 11 12 13 13 14 14 14 15 15 14 14 14 14 12 10 10 10 7 8 6 6
78 78 90 93 86 92 72 68 72 80 84 92 92 71 78 75 60 23 10 8 7 8 8 10 10 11 11 12 13 14 14 15 16 16 17 16 16 16 16 16 14 15 15 15
77 89 83 93 92 83 64 52 61 71 72 76 74 95 67 66 72 83 78 39 31 18 9 7 7 8 8 9 10 10 11 14 14 14 13 14 17 17 16 15 16 15 16 16
55 71 83 80 87 81 84 61 53 49 54 74 80 85 91 87 65 64 73 74 74 68 59 36 14 10 8 7 8 9 9 9 9 9 9 10 11 13 14 12 10 10 10 9
52 54 55 49 58 60 56 53 49 47 47 45 49 72 76 88 88 85 69 61 66 64 68 74 74 54 32 22 13 7 7 7 8 7 7 9 10 9 9 9 10 9 9 9
39 41 43 43 41 39 47 54 46 40 39 44 42 44 47 66 72 76 92 72 63 72 71 59 58 62 67 69 61 31 33 26 20 7 6 7 6 6 6 7 7 8 9 9
32 34 33 33 32 32 30 30 30 33 30 34 44 47 42 39 44 55 68 78 76 71 76 73 66 62 59 62 72 80 60 67 61 38 36 27 30 20 7 6 7 7 7 8
34 27 28 30 33 28 21 20 24 23 22 21 26 44 46 43 40 40 40 50 68 74 73 67 60 62 65 62 61 61 89 95 91 64 85 61 74 72 72 38 19 12 10 9
46 41 26 23 26 30 30 26 17 10 12 14 15 18 44 48 51 47 41 45 52 57 66 68 69 63 63 60 57 53 99 98 85 69 100 86 96 92 75 74 83 73 68 62
54 57 44 28 15 9 15 25 24 13 8 9 10 13 16 38 46 47 55 57 59 68 69 70 58 71 87 60 44 47 100 93 84 65 74 84 72 100 98 89 90 85 79 86
54 34 23 12 8 6 5 7 13 19 8 4 4 4 7 17 27 40 49 55 58 70 74 71 87 88 100 64 40 50 100 92 84 67 61 58 74 65 92 96 90 80 86 89
11 8 8 7 6 5 5 3 6 6 4 4 3 3 4 9 17 24 30 37 46 55 78 93 88 98 100 63 68 97 99 94 93 98 81 66 66 71 70 74 86 93 90 90
5 5 4 4 3 3 3 3 3 2 2 2 1 2 3 4 8 11 15 20 23 36 50 72 96 94 79 85 100 100 97 81 88 97 100 100 94 89 91 87 84 75 85 95
3 2 2 2 2 2 2 2 2 2 2 2 1 2 2 2 4 6 9 13 19 26 26 33 35 41 56 79 93 94 89 91 90 92 100 99 96 99 100 96 93 90 92 93
3 3 3 3 3 3 3 2 2 2 2 2 2 3 3 3 3 3 5 4 5 10 10 20 14 10 21 44 43 52 77 83 86 87 95 94 95 98 100 100 97 92 86 90
5 4 4 4 3 3 3 2 2 2 3 3 3 4 4 4 4 4 4 6 10 9 9 14 16 32 66 84 72 64 56 47 48 52 67 74 85 83 83 98 100 98 98 100
6 6 5 4 4 4 3 3 3 4 4 4 4 5 5 6 6 7 8 25 61 76 98 43 12 46 96 100 96 80 64 58 47 50 54 52 68 86 88 99 100 100 98 98
10 9 7 5 4 4 4 5 5 5 4 5 5 6 7 9 26 47 20 13 16 20 11 8 30 31 47 70 78 72 81 92 78 64 63 69 63 78 96 100 100 100 100 100
13 12 9 5 5 6 5 5 4 5 5 10 24 17 17 19 15 11 17 13 7 6 7 13 38 42 44 56 72 70 86 77 77 86 100 70 100 99 97 94 93 97 99 100
14 12 10 8 7 6 5 4 5 6 6 8 10 18 44 44 81 91 88 90 67 65 100 100 88 58 97 99 98 100 100 90 100 100 100 100 89 91 100 100 100 100 100 100
14 11 9 7 6 5 6 5 5 6 6 9 51 54 47 55 58 59 75 84 100 100 100 100 100 78 99 100 84 70 84 68 72 100 100 100 63 76 100 67 94 100 100 94

GFSNW_500_rhum_138.txt.gz
RH
3 28 63 67 72 77 83 78 14 11 10 7 6 6 6 7 9 11 18 36 42 45 52 53 50 48 44 38 29 17 11 13 17 18 13 14 18 22 26 40 50 44 39 41
4 18 56 67 66 72 83 81 85 22 10 11 8 7 6 6 6 6 7 8 10 12 18 26 34 37 38 42 46 49 46 42 42 42 45 48 51 49 42 37 33 33 28 30
19 22 47 69 65 67 76 93 79 84 41 8 10 10 8 8 7 7 6 6 6 6 6 7 8 10 13 15 14 16 18 22 25 27 28 28 29 28 25 20 20 17 15 10
50 38 51 69 68 66 72 82 94 77 87 77 21 8 11 11 10 9 8 8 8 7 7 5 5 5 5 5 6 6 6 7 8 9 10 10 10 11 12 11 10 10 12 8
51 57 47 66 74 77 74 85 98 94 80 89 93 80 11 8 13 13 12 11 11 11 11 11 10 8 7 7 7 7 7 6 5 5 4 5 6 6 6 5 5 6 6 6
62 65 64 71 81 84 86 77 86 97 96 84 80 89 96 54 10 8 10 13 13 12 12 12 13 13 13 14 14 13 13 13 12 12 8 7 5 4 4 5 4 5 5 4
65 76 80 82 89 94 91 88 86 90 94 97 98 95 91 88 95 63 16 9 8 9 12 12 13 12 12 13 13 13 14 14 15 16 15 14 14 14 13 13 13 12 12 11
55 72 75 92 92 97 96 95 68 64 72 76 77 84 83 96 83 98 98 84 48 20 10 9 8 10 12 13 11 14 14 13 14 14 16 16 17 16 17 16 17 17 16 15
52 52 53 55 79 89 94 96 91 79 60 60 53 58 68 80 95 95 82 81 87 88 77 63 47 18 9 8 9 9 11 11 10 12 12 10 11 16 15 14 14 13 13 13
58 47 35 38 48 71 77 77 91 93 80 68 58 52 48 52 69 78 84 93 89 89 79 72 76 82 72 52 28 14 11 10 9 9 8 8 11 10 11 10 10 10 9 9
55 53 45 37 34 32 34 44 53 50 57 82 82 65 53 48 47 49 54 65 78 76 88 75 63 63 66 69 71 77 66 37 27 16 10 9 12 12 11 11 9 8 7 8
55 53 45 41 35 29 28 28 28 26 27 28 28 30 42 40 42 44 43 47 56 57 66 70 74 71 66 77 72 70 69 83 90 87 56 42 52 20 7 6 6 5 6 8
66 57 47 40 39 38 34 32 26 23 22 20 20 20 18 20 28 41 38 44 45 43 49 54 55 51 53 61 63 72 84 82 66 70 98 97 86 75 54 29 27 28 31 27
67 70 60 54 50 44 36 31 29 30 27 24 18 15 13 17 17 16 26 43 49 47 48 48 44 40 53 45 52 52 67 72 85 71 83 90 81 88 81 78 72 67 66 68
72 65 61 58 53 50 43 38 31 28 26 22 18 15 12 9 8 12 12 14 25 46 55 58 54 49 56 46 41 28 67 90 79 67 87 80 69 95 96 90 89 97 86 82
72 71 62 58 58 59 56 54 39 30 25 27 24 18 15 10 8 6 11 12 13 21 31 43 48 55 82 63 30 33 74 100 91 69 87 79 68 71 92 92 91 89 97 100
80 73 72 72 71 70 64 61 51 44 35 26 22 20 13 7 6 5 7 8 8 12 17 22 31 43 49 51 30 54 80 98 94 81 90 76 94 86 95 100 96 93 96 100
95 87 86 81 77 74 67 49 50 42 28 22 24 15 10 6 5 4 4 5 6 7 8 13 21 25 28 33 34 56 70 79 90 100 98 95 98 99 99 94 96 96 97 96
98 94 79 72 66 60 44 40 35 26 20 14 11 8 5 3 3 3 3 3 3 4 4 4 7 10 13 18 24 36 52 56 58 74 95 100 94 96 96 100 94 92 98 100
80 65 60 52 39 27 25 17 13 13 9 5 5 3 3 3 3 2 2 2 2 2 2 3 2 2 3 3 4 6 8 12 17 24 35 42 50 71 88 99 98 93 96 99
35 27 21 25 21 13 12 10 12 9 7 5 3 3 3 3 3 3 3 3 3 2 2 3 2 2 4 2 3 4 4 8 12 21 26 58 59 58 64 81 94 95 89 87
19 17 15 11 8 7 6 7 7 4 3 3 4 4 4 4 4 4 4 4 3 3 3 3 2 4 5 10 16 28 45 94 74 64 67 63 60 56 56 66 70 80 98 100
8 7 5 5 5 5 5 4 4 5 5 5 5 5 5 5 5 5 5 4 4 5 4 4 4 8 14 43 98 79 40 42 69 100 98 83 66 78 76 59 51 46 55 72
8 7 6 5 5 4 5 5 6 7 8 8 8 7 7 6 6 7 7 9 22 56 12 10 15 18 30 32 18 8 8 9 11 17 40 83 100 100 98 55 60 51 54 92
11 10 7 5 5 7 8 8 9 10 10 10 8 8 8 9 13 13 16 21 10 12 16 32 25 28 46 63 89 58 51 52 56 67 88 100 95 99 94 100 97 99 99 100
16 11 9 10 10 11 12 13 14 13 11 10 8 7 7 7 14 12 13 17 42 80 93 100 100 100 100 96 99 84 79 100 97 100 100 100 100 100 100 100 98 100 93 92
26 16 17 18 17 17 20 19 17 14 11 9 10 14 39 36 25 8 9 13 32 80 100 94 96 100 100 100 100 94 96 100 100 100 100 100 100 78 51 78 100 99 100 91

GFSNW_500_rhum_144.txt.gz
RH
17 15 40 50 45 49 74 89 85 77 11 10 8 7 6 6 5 6 11 17 25 32 19 15 15 17 20 20 20 18 19 18 17 18 19 20 20 18 16 13 11 10 24 48
22 16 40 49 50 56 80 79 90 91 82 28 11 10 9 8 7 6 5 6 6 8 15 31 42 43 40 34 21 14 13 13 13 15 17 15 17 19 33 34 37 38 32 39
26 16 47 55 57 61 72 89 82 99 90 84 72 22 10 11 10 9 8 8 7 6 5 5 7 9 13 19 24 28 32 37 41 41 40 39 39 33 30 25 24 26 26 25
27 15 56 64 72 76 76 80 89 83 99 94 84 88 75 22 10 12 11 10 10 10 9 7 7 6 6 5 5 6 7 8 10 10 13 16 19 16 12 11 15 10 14 16
27 15 55 72 78 87 86 80 95 92 84 99 99 98 91 92 91 41 10 12 12 12 12 12 12 12 11 11 10 10 9 8 8 7 6 5 5 7 6 6 6 7 7 7
26 14 28 67 75 77 91 98 96 96 92 84 93 97 97 99 99 97 91 83 33 10 10 13 14 13 13 13 14 14 14 14 14 14 14 12 10 10 7 5 5 4 4 6
41 17 22 59 69 64 69 68 88 100 98 92 85 88 90 86 83 84 87 94 97 96 90 60 24 11 10 10 12 13 14 14 13 12 14 14 14 15 15 15 16 12 13 11
45 35 28 66 66 66 59 57 54 91 99 97 96 84 82 78 68 64 72 72 74 66 93 96 95 96 88 63 33 26 16 10 10 9 9 10 14 15 16 17 17 16 15 15
29 50 46 48 75 79 76 46 45 56 86 97 96 93 96 92 94 94 94 94 79 64 52 55 56 78 92 95 97 97 98 95 86 79 52 22 14 11 10 11 13 15 13 10
44 52 58 50 54 79 92 82 56 43 45 50 75 58 40 37 33 36 34 34 62 65 44 40 45 29 36 52 62 74 89 96 96 93 86 82 92 88 67 40 21 12 8 8
53 54 61 56 54 63 80 77 78 71 46 42 36 49 39 31 34 29 30 30 20 16 14 12 12 13 13 16 20 32 53 56 61 71 83 96 96 97 94 89 95 96 88 61
57 60 68 64 54 56 68 76 62 76 82 59 46 46 51 44 48 57 40 25 24 25 20 18 18 16 12 10 8 10 12 19 27 40 46 60 88 99 97 89 78 73 76 94
69 69 74 68 62 59 68 78 68 53 53 66 70 71 65 66 59 51 39 35 26 24 24 29 24 18 17 15 13 10 8 7 7 9 13 28 53 57 64 77 75 82 83 77
80 75 72 74 76 77 76 82 69 61 64 69 75 69 74 87 84 74 52 48 43 39 34 24 21 19 18 16 16 14 12 10 8 7 6 6 8 11 20 38 47 53 64 77
88 79 84 87 86 87 91 93 81 85 94 78 72 70 70 75 92 92 78 61 47 36 32 28 24 21 20 17 14 13 11 9 9 8 7 7 5 5 6 8 10 14 27 54
95 98 90 90 93 83 85 98 100 100 100 89 76 79 83 72 72 68 72 66 58 46 38 30 26 26 23 19 16 15 12 12 10 10 8 7 6 4 3 3 3 4 7 13
99 98 100 99 100 93 95 93 88 100 100 99 86 72 68 71 70 66 66 62 57 52 43 36 31 28 24 20 17 11 12 13 12 9 7 6 3 3 2 2 2 2 4 12
92 96 96 99 100 100 100 100 96 94 100 93 81 75 74 78 74 73 70 65 62 54 47 37 33 29 24 21 16 15 12 10 9 6 4 4 3 2 2 2 2 2 4 9
97 99 100 98 99 100 100 100 98 97 98 92 84 67 85 78 81 76 74 68 60 52 44 42 36 30 25 19 19 14 10 10 8 4 4 2 2 2 2 2 2 3 4 10
100 88 98 100 99 99 98 99 100 98 100 96 91 99 93 79 72 65 63 58 55 48 40 38 35 31 24 20 14 9 7 5 4 3 3 3 3 3 3 3 3 4 11 45
76 97 100 88 89 86 100 100 100 100 98 100 100 100 100 87 80 78 72 64 56 49 41 38 35 29 17 11 7 6 5 4 4 3 3 4 5 4 5 5 9 11 31 66
84 95 99 99 100 91 96 99 100 100 100 100 100 100 100 96 93 78 60 42 37 36 36 29 27 16 9 6 5 5 4 4 5 6 6 7 5 5 5 14 16 12 8 8
74 83 75 98 100 100 100 100 100 100 100 100 96 94 90 78 54 38 30 26 25 26 22 16 10 7 6 5 5 6 7 7 9 13 17 9 7 6 5 8 37 14 6 7
84 90 96 97 88 84 68 81 93 98 95 93 92 88 67 33 20 17 17 14 12 10 8 7 7 6 7 8 9 11 12 28 58 63 51 27 18 16 15 11 11 18 27 32
20 24 28 33 32 31 29 29 26 22 28 24 19 19 21 16 15 14 14 13 10 9 9 10 9 11 16 15 15 16 30 65 58 40 40 38 48 34 32 27 26 49 74 69
24 18 19 27 39 41 30 29 22 20 18 17 15 15 15 17 21 14 12 14 11 16 19 23 27 27 23 20 18 16 15 17 16 38 47 92 88 70 42 54 64 97 95 97
46 36 42 60 54 48 40 35 37 40 40 41 45 45 45 40 27 17 19 22 25 28 28 28 27 26 23 21 18 15 12 11 21 50 72 99 100 100 97 90 78 71 100 100

GFSNW_500_rhum_147.txt.gz
RH
18 31 25 30 42 56 62 82 88 94 77 11 10 8 7 6 5 5 8 16 27 25 19 15 18 20 20 21 21 21 27 24 22 24 27 27 28 30 28 24 18 16 12 11
26 36 31 20 52 52 66 78 88 92 93 84 29 11 10 9 8 7 5 5 6 10 20 28 32 30 24 18 15 14 14 15 15 15 16 14 15 16 15 14 23 34 40 42
37 42 34 15 51 60 61 75 85 94 96 93 89 90 30 11 11 10 9 8 7 5 5 6 7 9 16 24 32 36 34 34 34 34 34 35 40 40 41 33 28 31 28 34
35 44 41 20 28 64 62 74 86 88 95 92 95 91 92 93 52 12 12 11 11 11 10 8 7 6 6 5 5 7 8 8 9 12 12 13 17 21 20 13 15 14 14 16
36 40 43 32 17 50 64 61 65 83 92 95 92 93 97 97 98 97 80 22 12 13 12 12 12 12 12 10 10 9 9 8 8 8 8 6 5 6 6 6 5 6 7 8
44 43 44 40 36 35 73 66 59 61 77 97 96 92 94 94 98 99 96 96 100 80 34 14 12 13 13 13 13 13 13 14 14 14 15 13 13 13 11 11 11 6 5 6
54 47 47 43 43 37 64 72 64 60 55 74 96 96 94 93 79 74 68 73 88 87 65 81 94 73 38 16 11 11 11 12 11 12 13 14 14 14 14 14 15 14 14 14
55 50 47 49 48 39 37 71 68 64 58 46 76 96 97 99 95 86 80 89 88 86 70 50 50 54 74 93 98 94 84 57 52 49 23 13 11 11 13 14 14 14 15 15
44 49 48 52 49 47 47 47 66 76 65 52 48 72 79 83 72 94 96 81 73 53 64 76 60 32 29 37 32 41 50 70 81 84 85 80 87 99 96 35 18 13 12 11
39 38 41 40 40 43 47 52 49 61 80 72 54 48 57 66 57 34 31 31 32 30 29 22 28 15 15 20 16 11 13 16 20 26 41 60 74 81 95 97 97 93 86 76
51 47 42 41 39 34 43 48 50 52 65 86 77 50 51 64 77 46 32 39 49 43 30 30 22 19 17 18 19 16 12 11 10 10 10 10 14 17 30 44 54 64 70 74
64 56 48 47 44 36 34 50 51 50 51 74 79 79 64 44 56 80 68 67 72 76 68 55 33 26 29 29 32 26 20 16 15 13 12 11 11 9 8 8 8 8 11 22
82 76 70 63 61 50 45 47 52 54 50 55 86 73 72 88 61 54 57 71 82 91 89 74 61 52 44 37 26 24 28 21 18 19 21 16 11 11 10 10 9 8 7 6
80 90 82 81 82 73 76 67 68 70 66 62 78 86 72 68 81 90 90 79 80 85 85 74 70 60 52 46 41 41 28 24 24 25 18 16 14 13 12 12 12 11 9 8
73 60 56 77 85 91 88 79 74 78 89 73 75 85 98 85 80 92 89 86 90 96 90 89 83 73 62 58 51 44 32 29 31 32 22 18 16 14 13 14 13 10 9 8
83 82 84 57 60 79 88 93 90 98 96 86 82 82 100 99 98 99 100 100 98 96 92 91 78 74 72 61 55 53 40 34 30 25 22 20 18 16 16 15 13 11 9 8
30 50 65 92 90 84 87 98 100 100 100 96 91 82 87 99 100 99 96 98 97 96 86 88 91 70 67 57 46 45 40 33 30 28 25 22 20 19 17 16 15 12 8 5
24 39 61 59 83 95 100 100 100 100 100 99 93 92 91 100 100 100 100 99 98 95 98 89 89 85 71 60 48 46 40 35 33 32 30 26 23 22 19 16 12 7 4 3
27 40 43 66 88 99 100 100 100 100 100 94 92 99 100 100 100 99 100 99 94 90 83 83 87 85 78 66 60 50 44 40 37 34 32 28 25 20 14 9 6 4 3 2
12 33 72 64 85 100 100 98 92 92 100 88 88 100 100 100 100 97 100 95 97 90 86 95 86 69 64 60 57 52 46 41 38 34 29 23 17 11 6 5 4 3 3 3
4 5 10 37 89 100 100 100 98 97 99 98 92 100 98 89 98 100 98 94 92 86 77 84 75 61 65 60 52 43 39 35 30 24 15 9 7 5 4 4 5 5 4 4
5 6 9 16 49 88 100 84 77 100 100 99 98 100 100 100 99 100 100 99 96 80 73 71 59 56 59 54 48 31 21 19 18 8 6 5 4 4 4 5 6 7 7 6
9 16 16 26 62 68 74 89 98 100 96 97 98 100 100 100 98 99 95 90 83 79 74 70 67 62 48 33 25 16 10 9 7 7 6 7 7 8 9 8 9 8 7 7
15 18 22 30 50 61 72 75 78 77 81 81 76 77 80 75 76 76 81 74 74 70 65 57 44 30 17 12 11 9 9 10 13 13 13 13 13 12 21 47 21 12 10 13
19 18 18 21 29 32 31 30 33 36 34 31 30 28 30 29 28 28 32 32 31 31 26 17 14 13 12 14 14 14 29 22 19 19 16 15 16 16 17 26 18 21 21 24
32 24 26 48 58 59 52 44 40 37 33 34 35 35 33 33 40 26 21 23 20 20 26 24 21 22 28 33 87 68 41 46 29 21 19 20 21 20 18 15 12 25 84 86
56 54 80 100 88 82 71 61 57 57 52 46 47 46 47 42 33 23 21 27 31 29 30 34 35 33 31 34 34 30 30 30 32 30 27 26 25 22 17 14 11 34 87 100

GFSNW_500_rhum_150.txt.gz
RH
31 33 36 37 34 20 49 69 75 82 95 87 25 11 9 8 6 5 8 14 26 24 20 14 12 12 16 17 20 20 24 22 22 21 20 21 21 21 22 22 16 15 13 8
35 37 40 45 39 32 22 63 72 73 77 90 89 77 17 11 10 8 7 5 5 8 16 26 28 28 22 13 11 10 10 10 11 10 10 12 13 12 10 11 12 18 30 38
39 40 44 47 44 38 29 36 78 73 81 75 84 94 88 71 16 12 10 10 9 7 6 6 6 9 14 18 23 26 28 28 28 28 29 29 30 34 35 29 27 29 27 31
45 43 43 46 48 42 40 40 45 72 66 84 81 83 95 92 92 82 27 13 12 11 10 10 8 7 6 5 5 6 7 7 7 7 7 8 9 11 12 11 12 11 11 13
52 47 47 52 49 46 43 43 43 50 62 63 74 84 82 95 98 94 91 92 59 18 13 13 13 12 12 12 11 11 10 9 8 8 9 9 8 10 7 6 5 4 5 6
47 46 48 54 53 49 47 45 43 43 52 59 57 69 93 88 81 94 98 93 88 88 92 62 35 18 13 12 13 13 13 13 13 13 14 14 13 14 14 14 14 11 11 9
40 39 36 40 49 46 40 44 45 41 43 51 58 56 53 90 98 88 81 85 82 82 88 79 71 82 94 80 61 45 28 26 13 11 11 12 15 14 13 13 14 15 14 13
45 40 38 35 39 44 44 36 38 34 37 44 51 60 60 63 97 99 92 90 83 81 84 86 80 62 49 51 64 70 71 78 80 79 79 74 85 71 60 46 39 23 20 14
51 46 44 44 37 33 39 43 35 29 34 40 42 45 58 66 55 58 78 85 96 92 81 79 61 61 64 46 26 25 31 24 21 24 33 42 52 74 84 91 92 92 87 79
57 53 48 46 45 42 37 37 36 32 31 40 32 41 44 58 67 62 54 65 48 47 52 48 50 48 30 30 25 18 17 17 17 14 12 12 11 13 16 22 32 28 18 18
56 54 52 49 54 57 47 44 39 36 34 36 36 37 48 50 62 72 59 54 64 51 40 42 50 50 46 46 31 29 31 34 33 34 29 23 18 15 14 13 15 14 11 10
63 65 65 55 56 66 58 54 48 42 40 42 38 39 35 47 60 78 78 64 51 57 60 49 52 58 71 71 81 86 83 76 73 64 51 59 58 41 38 36 32 22 15 13
67 70 72 69 61 62 76 73 65 57 50 48 48 56 48 49 70 64 82 84 80 62 56 73 78 79 88 87 92 86 73 64 82 81 57 57 63 63 65 56 48 38 22 18
73 69 69 69 72 68 67 67 70 84 76 66 65 63 63 72 80 86 82 95 91 87 95 78 78 73 73 85 88 83 77 72 68 75 85 89 78 71 67 66 64 56 32 20
71 67 55 57 64 73 78 76 73 68 62 72 76 80 78 82 87 91 93 99 100 100 96 99 96 95 99 90 82 72 90 91 89 87 79 71 66 66 57 52 38 27 23 21
36 36 52 60 65 70 76 77 82 88 94 86 74 68 86 100 100 100 100 99 98 99 99 99 94 96 100 89 77 82 91 86 87 82 73 64 52 45 39 34 31 29 28 26
10 19 22 23 48 64 71 68 72 88 98 100 94 88 82 89 100 100 100 99 100 100 97 97 100 100 100 92 76 96 96 97 97 91 71 61 56 50 45 39 35 31 28 27
2 3 3 5 7 11 18 25 32 38 60 84 88 71 69 100 100 100 100 95 98 88 97 94 100 100 99 86 92 100 100 100 100 100 94 87 83 82 76 68 50 38 35 33
2 2 2 2 2 4 11 17 17 28 41 57 42 62 97 99 100 100 100 100 99 91 77 88 100 95 83 92 99 100 100 100 98 98 98 91 78 58 52 48 43 40 37 32
2 2 2 2 3 5 7 20 26 26 58 76 59 100 100 97 94 92 100 95 96 89 83 91 87 75 84 90 94 96 95 92 86 82 81 76 67 55 49 46 39 32 22 14
4 4 4 3 3 4 5 8 4 9 17 37 68 93 96 98 98 91 85 89 91 84 79 84 73 65 73 92 94 91 91 89 82 74 67 62 57 51 43 35 28 17 9 6
4 4 5 5 6 7 8 6 9 17 19 26 44 59 87 89 84 73 66 76 78 70 75 76 61 60 75 77 82 77 71 72 71 65 56 50 44 35 28 16 7 6 6 6
5 4 5 6 14 16 16 22 27 33 42 50 53 51 52 58 66 72 78 77 72 70 70 72 71 74 75 70 61 54 52 44 38 33 28 22 14 9 8 7 7 7 7 9
9 11 11 10 14 17 22 22 25 32 32 36 40 50 46 50 54 56 60 56 59 59 56 52 50 43 38 37 34 27 22 19 17 14 12 11 11 11 11 12 12 11 11 14
23 20 18 20 29 31 30 30 30 31 32 33 32 34 33 31 32 28 27 28 26 26 28 38 29 23 22 22 22 23 22 18 20 20 23 30 35 40 29 31 23 22 22 20
30 25 29 44 56 57 53 60 61 63 61 52 48 49 44 41 42 34 34 39 34 38 39 36 32 34 45 52 54 39 26 19 21 25 38 96 100 100 97 60 72 46 32 27
36 45 80 99 94 99 100 97 93 94 82 70 69 57 54 37 31 22 20 24 33 38 44 53 58 51 38 35 30 24 25 30 34 35 43 60 100 100 100 85 82 51 34 29

GFSNW_500_rhum_153.txt.gz
RH
44 44 45 41 46 42 41 40 48 58 92 98 99 90 23 11 9 7 6 14 21 13 9 11 13 14 17 14 13 13 13 13 13 13 12 15 15 14 14 13 11 11 10 10
47 49 49 45 45 47 45 43 41 47 56 74 97 100 95 79 17 11 10 8 6 7 18 20 18 13 10 8 9 9 9 9 9 8 11 12 11 11 11 9 10 12 13 26
50 52 51 47 48 49 45 44 41 42 47 54 60 82 95 100 91 78 36 13 11 10 8 6 7 12 18 21 21 20 17 20 21 22 22 18 20 22 23 18 20 23 24 28
48 47 50 46 45 50 51 42 41 41 39 45 54 53 62 79 94 99 90 80 46 14 13 12 11 10 8 7 6 6 7 8 8 7 7 7 8 9 7 7 7 8 8 10
47 45 39 38 38 41 48 45 38 41 39 38 40 54 55 58 75 76 87 96 90 75 69 32 13 12 13 13 13 13 12 12 11 11 10 10 11 12 13 13 11 5 6 7
50 44 44 44 42 35 36 35 38 36 38 38 35 38 40 52 54 67 82 88 90 86 83 80 80 66 42 26 22 13 13 14 13 13 15 14 12 14 13 14 14 14 14 14
56 53 46 52 55 49 37 34 33 33 36 35 34 32 37 44 54 54 60 80 88 80 82 80 78 79 70 67 70 76 78 75 73 55 44 33 27 18 18 16 16 18 15 13
52 50 51 50 48 45 43 42 38 36 32 33 33 34 33 32 38 49 55 61 61 69 79 87 80 76 79 76 63 55 47 52 54 56 54 54 60 75 83 82 78 79 75 73
55 55 55 58 54 49 48 47 43 41 38 38 32 29 31 37 34 36 41 52 58 58 58 67 78 87 82 77 70 61 54 35 29 31 31 23 16 18 24 27 35 37 40 38
64 58 54 59 62 58 54 56 51 46 43 41 37 36 34 33 33 35 41 41 48 56 52 53 59 54 56 64 66 60 43 45 56 27 22 25 28 25 20 20 21 17 15 16
58 55 60 65 62 63 64 60 59 54 48 49 45 42 41 41 43 41 40 50 59 57 58 55 54 57 51 48 50 50 54 63 47 40 48 54 64 68 63 55 52 42 38 43
57 57 59 66 73 68 68 67 61 57 54 53 52 55 49 45 49 51 47 52 57 70 77 73 71 67 61 64 55 53 58 68 77 84 86 88 93 85 87 86 56 53 82 85
60 62 62 56 60 69 69 70 66 62 53 56 58 61 67 58 58 55 57 66 68 66 71 70 75 84 83 74 65 68 75 78 84 95 100 97 94 94 84 82 80 81 85 92
73 64 61 60 57 58 57 57 66 64 62 53 55 68 68 72 71 71 77 79 83 88 89 83 74 79 82 85 97 90 93 90 92 88 89 98 96 95 92 92 88 81 76 70
75 68 64 59 50 40 41 41 42 57 55 44 42 56 70 74 77 79 79 77 79 88 89 90 85 84 94 85 84 78 100 100 97 93 100 94 90 94 89 83 83 78 74 64
68 68 66 42 37 34 30 25 31 33 35 36 37 34 55 76 93 100 98 100 100 100 86 87 95 100 100 96 81 85 100 100 100 100 98 98 94 92 90 89 93 87 77 66
60 51 38 28 34 24 12 10 12 17 22 18 18 21 29 42 56 68 81 98 100 100 99 98 100 100 100 93 80 98 95 100 100 99 100 99 99 94 100 99 100 100 100 93
3 2 2 2 2 3 2 3 3 3 5 5 5 4 7 20 33 48 63 57 60 60 69 65 72 91 100 86 85 100 100 100 100 100 98 90 94 97 95 97 100 100 100 99
3 2 2 2 2 2 2 2 2 2 2 2 2 2 6 7 15 27 46 50 51 53 56 88 95 87 73 90 100 100 100 95 93 96 99 100 100 100 100 100 100 98 93 85
3 3 3 3 3 3 3 2 2 2 3 2 2 7 7 14 15 14 26 35 64 52 48 80 70 57 76 99 100 99 95 90 87 89 91 90 89 85 84 82 78 75 71 66
4 4 4 4 4 4 4 4 4 4 4 4 4 6 6 9 8 12 16 14 25 26 40 63 54 44 63 88 96 96 93 88 84 79 72 71 74 78 74 71 70 68 59 50
4 4 4 4 4 4 5 4 6 6 7 8 9 9 10 12 15 20 18 21 21 19 26 32 22 39 51 60 73 77 78 79 80 77 77 77 73 68 62 57 53 45 38 30
3 3 3 4 6 7 9 10 9 10 10 10 13 15 15 18 18 18 22 25 27 32 37 38 52 46 46 51 52 50 52 54 51 46 45 42 39 34 32 31 24 18 15 12
4 5 5 7 11 12 15 16 14 16 18 18 18 19 17 21 22 23 20 24 31 30 22 22 28 23 24 28 26 23 23 23 24 22 20 21 21 20 19 18 17 14 12 13
14 14 16 17 29 33 32 30 30 29 30 32 35 35 31 35 41 36 35 40 32 33 39 43 50 48 50 47 41 39 42 35 25 29 24 21 23 21 20 22 21 18 17 14
30 25 34 44 47 49 46 46 46 57 64 62 63 59 56 51 52 46 48 46 40 43 60 74 74 59 53 35 28 25 30 53 74 91 96 98 74 56 33 21 21 26 28 26
25 43 62 65 64 66 75 98 100 94 88 70 57 48 43 38 29 18 23 30 37 40 51 43 37 30 26 28 31 30 30 33 36 38 34 33 30 27 25 21 19 20 19 19

GFSNW_500_rhum_156.txt.gz
RH
48 54 50 49 46 49 50 46 44 49 56 73 82 89 90 32 10 7 8 15 17 12 8 10 13 13 14 13 11 10 10 10 9 10 10 10 9 9 9 9 8 9 9 10
48 49 47 44 43 44 48 43 42 43 48 49 52 68 78 87 91 46 12 9 6 8 15 19 16 10 9 9 10 11 12 12 13 13 13 12 11 11 11 10 9 8 8 9
46 43 44 40 38 36 35 40 37 40 41 42 47 48 54 71 80 86 94 86 29 11 9 6 8 13 14 15 18 14 11 12 10 10 10 10 9 8 9 11 15 23 20 32
47 41 40 37 36 37 34 33 33 33 35 35 34 38 50 53 54 68 78 87 96 95 74 26 13 11 10 8 7 9 10 12 13 14 13 11 13 14 11 9 11 11 10 11
48 46 48 41 45 47 52 35 35 33 33 32 33 37 30 36 48 49 58 68 83 86 85 79 83 88 51 17 13 12 12 11 10 11 10 9 8 8 9 8 9 6 8 7
53 47 45 52 52 41 38 47 43 40 37 35 31 30 32 34 35 40 45 51 58 64 78 80 79 77 73 75 81 79 66 42 23 14 14 12 11 13 13 13 13 14 14 17
55 52 49 43 41 41 42 40 38 37 40 39 37 29 27 28 29 32 37 38 46 54 58 60 71 78 81 81 81 76 77 72 68 62 72 73 79 69 63 71 59 40 32 27
61 53 48 46 45 45 40 37 39 42 44 40 37 34 34 30 29 27 30 31 34 34 50 61 57 60 66 76 71 74 75 75 72 64 56 50 50 50 41 42 44 49 64 74
47 50 50 46 46 47 49 49 51 52 47 49 44 42 42 38 36 34 31 28 28 29 32 32 35 51 54 55 57 73 79 78 71 65 60 66 42 28 24 28 29 23 22 24
47 48 47 50 51 45 42 40 41 42 44 54 58 57 52 45 42 40 39 38 39 35 32 31 31 34 42 43 46 51 50 49 50 49 44 40 39 45 34 36 37 36 37 37
56 55 54 52 58 64 53 45 42 40 40 46 48 52 50 47 50 47 43 47 53 47 44 40 40 37 40 39 42 58 62 60 52 51 54 55 54 54 58 59 62 66 72 84
56 58 54 60 60 58 64 63 51 47 41 46 48 50 48 46 48 47 47 49 51 49 50 48 44 41 42 50 51 64 72 73 77 76 70 64 65 72 75 84 86 78 76 79
69 71 70 71 63 67 56 64 63 62 58 53 55 56 53 47 51 48 44 48 57 56 59 60 61 57 56 58 59 74 80 88 86 93 97 98 96 90 85 77 71 77 81 84
80 84 75 72 74 82 63 58 59 58 58 59 52 50 46 47 52 55 48 44 48 57 66 68 69 69 65 64 71 73 86 99 100 99 100 98 95 97 96 87 83 77 80 86
95 90 83 78 74 74 74 69 67 70 68 58 55 49 45 45 43 49 49 43 47 57 61 65 68 76 94 87 81 69 94 99 100 93 100 98 98 100 99 98 96 95 91 86
84 84 88 90 94 92 86 85 82 72 65 61 54 46 40 34 35 36 40 43 35 36 43 48 53 74 100 100 82 88 100 100 100 100 100 100 100 100 100 98 100 100 100 100
94 91 90 95 92 96 99 88 72 62 51 43 41 37 29 14 12 20 20 18 20 20 23 24 34 46 65 79 59 80 100 100 100 97 100 100 100 99 98 90 90 99 100 100
100 100 100 99 100 85 53 46 43 24 12 7 6 7 4 3 3 3 4 5 6 12 21 15 18 35 46 35 41 90 100 98 98 93 87 81 82 82 82 88 97 100 100 100
100 100 100 100 99 87 49 37 26 17 14 14 12 3 1 1 2 2 2 2 2 5 6 8 14 14 20 39 95 98 100 91 87 85 79 75 82 94 100 100 100 100 100 99
83 82 79 59 40 26 15 9 8 5 3 3 2 2 2 4 4 4 3 3 5 4 3 6 6 8 40 88 87 92 94 95 85 77 74 76 77 80 84 90 93 90 87 80
4 4 4 4 4 4 4 4 4 4 3 3 3 4 4 5 5 5 5 6 6 4 6 12 12 11 28 33 33 35 37 43 49 55 58 62 72 82 86 87 83 78 72 67
4 4 4 4 4 4 4 4 4 4 5 4 4 4 5 7 7 7 8 8 7 7 9 11 10 14 18 24 31 38 48 58 63 69 71 77 78 77 76 76 78 80 82 81
3 3 3 3 4 5 6 8 9 9 10 8 9 8 8 12 14 13 12 11 11 11 11 12 14 15 16 15 23 25 29 30 35 40 48 54 58 62 63 62 65 60 54 48
4 4 4 5 5 6 10 13 13 13 12 12 15 16 16 20 21 20 17 20 19 23 28 32 47 73 89 55 45 38 34 32 27 27 27 27 27 33 24 28 29 27 28 27
9 8 8 8 14 30 32 27 26 26 27 28 29 28 29 31 33 31 34 42 37 41 50 60 71 72 56 38 33 32 32 34 37 47 56 63 60 56 63 61 52 46 40 34
17 8 23 37 41 46 45 44 43 46 49 51 51 50 55 55 56 51 44 40 36 35 44 44 41 36 33 33 34 32 31 36 42 42 42 46 52 61 52 45 65 92 91 49
13 43 64 64 64 65 68 66 63 61 64 75 69 55 46 44 43 43 42 37 34 34 27 22 20 26 30 35 30 26 25 37 40 32 26 23 23 25 25 26 28 31 31 29

GFSNW_500_rhum_159.txt.gz
RH
46 49 50 47 44 39 36 33 34 35 42 48 64 82 92 61 16 8 7 13 15 9 10 14 14 12 12 18 29 32 30 31 30 31 29 26 24 25 23 20 14 10 8 6
58 50 45 42 42 38 37 38 34 34 33 31 36 46 60 80 96 75 19 9 7 8 14 15 10 8 10 12 12 11 9 8 9 8 8 8 9 9 9 9 8 8 9 8
72 52 44 38 38 45 40 32 36 36 34 33 32 32 34 38 52 69 86 92 42 12 9 7 7 10 14 14 11 9 7 8 8 8 8 8 8 8 8 7 7 7 7 12
68 62 43 41 43 44 46 54 39 36 34 34 33 32 33 32 32 34 44 59 79 87 86 46 20 11 10 9 7 7 9 12 12 14 14 12 12 11 11 11 12 11 14 16
62 54 48 49 46 50 49 36 42 40 42 42 43 44 43 36 31 30 30 29 33 45 69 78 83 94 92 42 22 16 15 15 11 9 8 7 6 6 5 5 6 7 6 7
51 66 63 54 51 50 50 39 33 30 32 36 42 40 40 41 42 39 32 31 33 34 30 38 43 61 77 83 84 83 81 75 75 71 55 60 58 29 19 18 15 13 12 13
51 53 65 56 51 48 43 44 43 37 33 28 29 31 33 38 39 38 39 39 38 35 29 29 33 35 40 48 70 85 87 84 81 78 72 58 56 60 63 66 72 73 72 74
45 53 53 51 43 39 43 43 42 41 37 35 31 28 24 28 34 35 32 32 34 35 32 32 33 32 32 38 40 46 54 67 63 55 60 53 56 58 56 51 42 35 27 24
52 48 46 49 45 38 36 34 31 35 42 46 41 40 44 36 30 33 34 32 32 31 31 27 24 24 22 24 31 42 47 51 51 50 45 37 44 48 51 50 45 44 37 33
45 50 55 50 46 45 43 41 39 32 30 37 40 39 42 42 45 43 44 47 50 45 36 30 30 29 28 25 24 32 40 45 48 57 58 39 59 51 51 51 46 42 38 40
53 49 48 54 60 62 57 55 54 53 49 50 47 46 45 44 44 41 40 45 49 47 46 40 40 30 32 30 32 34 46 55 56 61 65 54 61 70 74 71 66 62 60 61
57 61 58 57 66 65 64 70 64 70 65 64 61 56 55 51 55 51 43 44 43 42 44 41 38 38 36 36 37 55 65 72 72 76 77 76 76 79 80 84 87 88 86 82
67 69 74 76 86 81 75 74 81 78 67 68 70 72 57 54 56 58 56 54 51 46 43 42 40 37 36 35 35 43 56 74 81 87 90 99 93 86 87 87 79 78 88 99
84 76 78 84 81 92 93 84 92 90 82 68 68 75 66 68 68 69 63 59 53 50 45 41 39 34 35 35 34 33 54 76 91 83 98 100 100 100 96 87 82 91 90 94
90 86 85 86 96 88 82 78 75 83 85 73 61 66 72 67 71 71 65 61 55 50 46 42 39 36 40 34 28 27 48 65 77 83 100 100 96 100 100 97 91 96 89 82
87 88 90 93 96 92 87 82 76 76 77 69 62 58 66 81 85 80 63 55 48 42 38 36 31 20 23 21 16 14 23 38 51 51 91 100 92 94 96 98 100 98 100 95
91 88 89 91 94 96 93 86 82 90 92 89 74 63 61 77 84 66 49 39 29 23 20 18 9 6 7 6 5 7 18 27 35 35 30 27 40 51 66 75 76 77 85 93
96 97 100 99 100 98 99 100 99 94 95 86 77 68 68 52 36 22 12 8 5 5 4 4 3 3 4 3 4 12 20 28 19 20 28 24 34 44 53 67 80 90 91 90
100 100 100 100 98 100 100 100 100 97 100 84 80 86 80 65 47 44 38 25 14 12 8 5 5 4 5 10 6 7 7 7 9 14 33 43 40 44 51 54 58 62 69 76
69 94 92 88 80 85 97 97 99 93 89 82 77 66 32 28 22 16 8 6 4 4 3 3 3 3 9 16 12 11 10 10 14 21 27 36 47 51 57 64 75 75 82 92
90 78 58 48 40 24 12 10 16 18 17 11 7 6 5 5 5 4 5 4 5 4 5 7 5 4 11 13 16 16 16 19 22 26 32 35 32 31 37 50 60 67 77 84
4 6 7 4 4 4 4 4 4 4 4 4 4 4 4 5 5 5 7 8 8 8 8 7 5 9 12 13 13 14 16 18 24 31 32 28 39 51 57 73 90 97 98 98
3 3 3 3 4 5 4 4 5 6 6 6 5 6 7 8 8 8 12 13 12 12 12 12 14 13 12 12 15 22 23 22 20 19 22 25 29 40 59 63 65 73 73 76
3 3 3 4 4 3 4 6 7 8 8 7 10 10 10 13 16 19 17 21 23 20 20 26 38 43 43 33 35 38 39 37 37 44 49 52 59 50 40 37 35 32 28 26
5 5 6 5 6 13 15 16 16 17 16 20 24 26 25 27 27 28 33 45 46 47 50 47 45 40 34 28 26 25 23 24 26 32 35 34 37 45 41 44 36 36 35 29
11 8 7 14 21 31 39 34 33 36 43 46 47 46 46 44 40 41 60 56 48 42 42 34 26 20 22 24 25 33 24 23 25 26 29 30 35 40 34 22 24 22 20 19
11 15 61 74 73 64 53 51 58 67 67 65 62 59 61 57 54 48 51 62 75 52 36 29 48 46 30 22 19 18 18 21 26 31 43 42 35 39 42 37 44 58 62 67